Hourly Data Report for July 27, 2017

TORONTO CITY
ONTARIO

43°40'00.000" N
79°24'00.000" W
112.50 m
6158355
71508
XTO

Download Data

Hourly Data (July 2017)
Hourly Data Report for July 27, 2017
TIME
LST
Temp Definition
°C
Dew Point Definition
°C
Rel Hum Definition
%
Precip. Amount Definition
mm

Wind Dir Definition
10's deg

Wind Spd Definition
km/h
Visibility Definition
km
Stn Press Definition
kPa
Hmdx Definition


Wind Chill Definition


Weather Definition


00:00 19.6 17.0 85 0.0 LegendMM LegendMM   100.15     LegendNANA
01:00 19.6 17.1 85 0.3 LegendMM LegendMM   100.14     LegendNANA
02:00 19.0 16.5 86 0.5 LegendMM LegendMM   100.08     LegendNANA
03:00 18.8 16.8 88 0.7 LegendMM LegendMM   100.05     LegendNANA
04:00 18.8 16.8 88 0.2 LegendMM LegendMM   100.04     LegendNANA
05:00 19.0 17.2 90 0.5 LegendMM LegendMM   100.12     LegendNANA
06:00 19.2 17.6 91 0.0 LegendMM LegendMM   100.06     LegendNANA
07:00 19.7 17.7 88 0.0 LegendMM LegendMM   100.07     LegendNANA
08:00 19.7 18.0 90 2.3 LegendMM LegendMM   100.08     LegendNANA
09:00 19.9 18.1 89 1.1 LegendMM LegendMM   100.09     LegendNANA
10:00 20.4 18.6 90 0.8 LegendMM LegendMM   100.00 27   LegendNANA
11:00 21.3 17.6 80 0.0 LegendMM LegendMM   99.98 27   LegendNANA
12:00 22.5 18.9 80 0.0 LegendMM LegendMM   99.97 29   LegendNANA
13:00 22.8 18.8 78 0.0 LegendMM LegendMM   99.98 29   LegendNANA
14:00 24.7 19.0 70 0.0 LegendMM LegendMM   99.92 31   LegendNANA
15:00 24.9 18.2 66 0.0 LegendMM LegendMM   99.86 31   LegendNANA
16:00 25.8 18.9 66 0.0 LegendMM LegendMM   99.82 32   LegendNANA
17:00 26.1 18.2 62 0.0 LegendMM LegendMM   99.79 32   LegendNANA
18:00 24.6 17.4 64 0.0 LegendMM LegendMM   99.80 30   LegendNANA
19:00 25.0 13.8 50 0.0 LegendMM LegendMM   99.84 28   LegendNANA
20:00 23.6 15.3 60 0.0 LegendMM LegendMM   99.89 28   LegendNANA
21:00 22.2 15.2 65 0.0 LegendMM LegendMM   99.93 26   LegendNANA
22:00 21.1 15.2 69 0.0 LegendMM LegendMM   99.95 25   LegendNANA
23:00 20.7 15.0 70 0.0 LegendMM LegendMM   99.97 25   LegendNANA

Notes on Data Quality.

Legend

  • E = Estimated
  • M = Missing
  • NA = Not Available*
  • [empty] = Indicates an unobserved value
Date modified: